AUA45T LOWW-LEMG

Flight info

Callsign AUA45T
Flight time N/A
Altitude 37000
Route OSPEN4C/29 OSPEN DCT ABRUK DCT SETAL DCT DETSA DCT GEKBA DCT VAMTU DCT KOLON DCT GANGU DCT PADKO DCT DIVKO DCT NILDU DCT NENDA N975 BCN M985 VIBAS
Aircraft A320/M-SDE3FGHIRWY/LB1

Departure

Time 2026-05-07 13:41
Airport Vienna International Airport (LOWW)

Arrival

Time N/A
Airport Málaga-Costa del Sol Airport (LEMG)
Time Latitude Longitude Altitude Speed Heading
2026-05-07 13:25 48.11728 16.56738 609 ft 0 kts 26°
2026-05-07 13:32 48.11718 16.56730 609 ft 4 kts 27°
2026-05-07 13:32 48.11694 16.56710 625 ft 4 kts 35°
2026-05-07 13:33 48.11674 16.56684 625 ft 4 kts 54°
2026-05-07 13:33 48.11666 16.56653 625 ft 3 kts 110°
2026-05-07 13:33 48.11669 16.56641 625 ft 0 kts 116°
2026-05-07 13:35 48.11663 16.56659 625 ft 5 kts 116°
2026-05-07 13:36 48.11650 16.56701 616 ft 6 kts 116°
2026-05-07 13:36 48.11623 16.56784 622 ft 9 kts 116°
2026-05-07 13:36 48.11597 16.56864 618 ft 8 kts 116°
2026-05-07 13:36 48.11566 16.56959 619 ft 10 kts 116°
2026-05-07 13:37 48.11537 16.57049 613 ft 10 kts 116°
2026-05-07 13:37 48.11504 16.57149 612 ft 10 kts 116°
2026-05-07 13:37 48.11475 16.57236 612 ft 9 kts 116°
2026-05-07 13:37 48.11445 16.57328 609 ft 9 kts 116°
2026-05-07 13:38 48.11407 16.57395 615 ft 9 kts 174°
2026-05-07 13:38 48.11328 16.57342 616 ft 14 kts 206°
2026-05-07 13:38 48.11244 16.57281 609 ft 11 kts 205°
2026-05-07 13:38 48.11188 16.57339 611 ft 11 kts 115°
2026-05-07 13:39 48.11158 16.57432 609 ft 9 kts 116°
2026-05-07 13:39 48.11130 16.57517 615 ft 8 kts 116°
2026-05-07 13:39 48.11107 16.57589 614 ft 7 kts 116°
2026-05-07 13:39 48.11076 16.57658 614 ft 9 kts 148°
2026-05-07 13:40 48.11021 16.57631 618 ft 9 kts 207°
2026-05-07 13:40 48.10965 16.57589 615 ft 9 kts 207°
2026-05-07 13:40 48.10919 16.57527 613 ft 9 kts 269°
2026-05-07 13:40 48.10951 16.57424 615 ft 17 kts 296°
2026-05-07 13:41 48.11102 16.56956 619 ft 84 kts 296°
2026-05-07 13:41 48.11444 16.55900 618 ft 140 kts 296°
2026-05-07 13:41 48.11941 16.54373 663 ft 178 kts 294°
2026-05-07 13:41 48.12260 16.52670 1282 ft 174 kts 259°
2026-05-07 13:42 48.11661 16.51155 1814 ft 174 kts 216°
2026-05-07 13:42 48.10651 16.50147 2425 ft 176 kts 212°
2026-05-07 13:42 48.09577 16.49067 2718 ft 196 kts 212°
2026-05-07 13:42 48.08389 16.47840 2991 ft 216 kts 213°
2026-05-07 13:43 48.07117 16.46450 3229 ft 240 kts 216°
2026-05-07 13:43 48.05771 16.44786 3668 ft 257 kts 219°
2026-05-07 13:43 48.04401 16.43001 4442 ft 262 kts 220°
2026-05-07 13:43 48.03043 16.41204 5234 ft 264 kts 221°
2026-05-07 13:44 48.01661 16.39375 6032 ft 267 kts 221°
2026-05-07 13:44 48.00283 16.37470 6813 ft 270 kts 230°
2026-05-07 13:44 47.99348 16.35075 7603 ft 271 kts 247°
2026-05-07 13:44 47.98631 16.32451 8370 ft 274 kts 248°
2026-05-07 13:45 47.97912 16.29785 9092 ft 277 kts 248°
2026-05-07 13:45 47.97196 16.27120 9826 ft 280 kts 248°
2026-05-07 13:45 47.96460 16.24372 10313 ft 292 kts 248°
2026-05-07 13:45 47.95688 16.21501 10458 ft 314 kts 248°
2026-05-07 13:46 47.94839 16.18358 10608 ft 335 kts 248°
2026-05-07 13:46 47.93963 16.15118 11101 ft 342 kts 248°
2026-05-07 13:46 47.93065 16.11798 11734 ft 345 kts 247°
2026-05-07 13:46 47.92161 16.08465 12408 ft 347 kts 247°
2026-05-07 13:47 47.91250 16.05122 13038 ft 350 kts 247°
2026-05-07 13:47 47.90329 16.01747 13700 ft 352 kts 247°
2026-05-07 13:47 47.89410 15.98380 14283 ft 354 kts 246°
2026-05-07 13:47 47.88475 15.94951 14878 ft 355 kts 246°
2026-05-07 13:48 47.87549 15.91554 15464 ft 356 kts 246°
2026-05-07 13:48 47.86612 15.88123 16017 ft 358 kts 246°
2026-05-07 13:48 47.85677 15.84715 16613 ft 359 kts 245°
2026-05-07 13:48 47.84728 15.81261 17192 ft 361 kts 245°
2026-05-07 13:49 47.83768 15.77770 17720 ft 365 kts 245°
2026-05-07 13:49 47.82797 15.74252 18230 ft 368 kts 245°
2026-05-07 13:49 47.81833 15.70761 18748 ft 371 kts 245°
2026-05-07 13:49 47.80852 15.67207 19216 ft 373 kts 245°
2026-05-07 13:50 47.79854 15.63598 19734 ft 375 kts 245°
2026-05-07 13:50 47.78862 15.60034 20220 ft 376 kts 245°
2026-05-07 13:50 47.77849 15.56394 20722 ft 378 kts 245°
2026-05-07 13:50 47.76847 15.52793 21194 ft 380 kts 244°
2026-05-07 13:51 47.75841 15.49182 21643 ft 382 kts 244°
2026-05-07 13:51 47.74810 15.45488 22102 ft 384 kts 244°
2026-05-07 13:51 47.73790 15.41823 22550 ft 386 kts 244°
2026-05-07 13:51 47.72769 15.38157 22990 ft 388 kts 244°
2026-05-07 13:52 47.71734 15.34449 23298 ft 390 kts 244°
2026-05-07 13:52 47.70684 15.30706 23670 ft 391 kts 244°
2026-05-07 13:52 47.69641 15.27000 24016 ft 393 kts 244°
2026-05-07 13:52 47.68574 15.23222 24327 ft 395 kts 244°
2026-05-07 13:53 47.67520 15.19488 24645 ft 396 kts 244°
2026-05-07 13:53 47.66450 15.15693 24994 ft 397 kts 244°
2026-05-07 13:53 47.65376 15.11884 25348 ft 399 kts 244°
2026-05-07 13:53 47.64305 15.08084 25701 ft 398 kts 244°
2026-05-07 13:54 47.63243 15.04333 26053 ft 399 kts 244°
2026-05-07 13:54 47.62171 15.00558 26324 ft 399 kts 243°
2026-05-07 13:54 47.61088 14.96753 26652 ft 399 kts 243°
2026-05-07 13:54 47.59999 14.92937 26953 ft 400 kts 243°
2026-05-07 13:55 47.58920 14.89161 27233 ft 402 kts 243°
2026-05-07 13:55 47.57821 14.85325 27483 ft 404 kts 243°
2026-05-07 13:55 47.56718 14.81479 27760 ft 404 kts 243°
2026-05-07 13:55 47.55622 14.77665 28044 ft 406 kts 243°
2026-05-07 13:56 47.54512 14.73808 28192 ft 410 kts 243°
2026-05-07 13:56 47.53386 14.69901 28374 ft 412 kts 243°
2026-05-07 13:56 47.52258 14.65983 28598 ft 414 kts 243°
2026-05-07 13:56 47.51138 14.62084 28843 ft 415 kts 243°
2026-05-07 13:57 47.49997 14.58126 29039 ft 417 kts 244°
2026-05-07 13:57 47.48856 14.54186 29256 ft 418 kts 244°
2026-05-07 13:57 47.47709 14.50240 29533 ft 417 kts 243°
2026-05-07 13:57 47.46563 14.46313 29854 ft 416 kts 243°
2026-05-07 13:58 47.45434 14.42445 30138 ft 414 kts 243°
2026-05-07 13:58 47.44296 14.38539 30400 ft 413 kts 244°
2026-05-07 13:58 47.43165 14.34648 30663 ft 412 kts 244°
2026-05-07 13:58 47.42025 14.30735 30861 ft 412 kts 243°
2026-05-07 13:59 47.40896 14.26875 31149 ft 411 kts 244°
2026-05-07 13:59 47.39753 14.22973 31277 ft 414 kts 244°
2026-05-07 13:59 47.38615 14.19101 31420 ft 416 kts 244°
2026-05-07 13:59 47.37459 14.15173 31618 ft 416 kts 244°
2026-05-07 14:00 47.36311 14.11278 31857 ft 416 kts 244°
2026-05-07 14:00 47.35147 14.07330 32041 ft 416 kts 245°
2026-05-07 14:00 47.34003 14.03460 32267 ft 416 kts 244°
2026-05-07 14:00 47.32838 13.99534 32472 ft 415 kts 244°
2026-05-07 14:01 47.31688 13.95661 32644 ft 415 kts 244°
2026-05-07 14:01 47.30521 13.91737 32852 ft 414 kts 244°
2026-05-07 14:01 47.29377 13.87889 33023 ft 414 kts 244°
2026-05-07 14:01 47.28222 13.84016 33264 ft 413 kts 244°
2026-05-07 14:02 47.27060 13.80123 33497 ft 413 kts 244°
2026-05-07 14:02 47.25912 13.76284 33754 ft 412 kts 245°
2026-05-07 14:02 47.24740 13.72371 33896 ft 414 kts 245°
2026-05-07 14:02 47.23592 13.68529 34029 ft 414 kts 245°
2026-05-07 14:03 47.22416 13.64607 34178 ft 415 kts 245°
2026-05-07 14:03 47.21255 13.60743 34316 ft 416 kts 245°
2026-05-07 14:03 47.20078 13.56835 34477 ft 415 kts 245°
2026-05-07 14:03 47.18916 13.52979 34699 ft 414 kts 245°
2026-05-07 14:04 47.17755 13.49141 34865 ft 413 kts 245°
2026-05-07 14:04 47.16577 13.45255 35025 ft 413 kts 245°
2026-05-07 14:04 47.15413 13.41416 35163 ft 413 kts 245°
2026-05-07 14:04 47.14251 13.37594 35309 ft 413 kts 245°
2026-05-07 14:05 47.13073 13.33723 35429 ft 413 kts 245°
2026-05-07 14:05 47.11909 13.29894 35569 ft 413 kts 245°
2026-05-07 14:05 47.10724 13.26011 35723 ft 413 kts 245°
2026-05-07 14:05 47.09553 13.22185 35841 ft 413 kts 245°
2026-05-07 14:06 47.08381 13.18360 35962 ft 413 kts 245°
2026-05-07 14:06 47.07199 13.14507 36088 ft 414 kts 245°
2026-05-07 14:06 47.06011 13.10637 36205 ft 413 kts 245°
2026-05-07 14:06 47.04835 13.06809 36333 ft 413 kts 245°
2026-05-07 14:07 47.03648 13.02950 36451 ft 412 kts 245°
2026-05-07 14:07 47.02480 12.99163 36568 ft 412 kts 245°
2026-05-07 14:07 47.01292 12.95313 36708 ft 412 kts 245°
2026-05-07 14:07 47.00122 12.91522 36829 ft 411 kts 245°
2026-05-07 14:08 46.98931 12.87674 36967 ft 411 kts 245°
2026-05-07 14:08 46.96572 12.80065 36990 ft 414 kts 245°
2026-05-07 14:09 46.94179 12.72361 36989 ft 415 kts 245°
2026-05-07 14:09 46.91786 12.64690 36991 ft 415 kts 245°
2026-05-07 14:10 46.89374 12.57016 36995 ft 414 kts 245°
2026-05-07 14:10 46.86970 12.49374 37021 ft 414 kts 245°
2026-05-07 14:11 46.84561 12.41729 37039 ft 414 kts 245°
2026-05-07 14:11 46.82145 12.34100 37060 ft 414 kts 245°
2026-05-07 14:12 46.79480 12.26625 37079 ft 415 kts 236°
2026-05-07 14:12 46.76004 12.19921 37066 ft 416 kts 233°
2026-05-07 14:13 46.72492 12.13181 36950 ft 416 kts 234°
2026-05-07 14:13 46.69010 12.06498 36968 ft 416 kts 234°
2026-05-07 14:14 46.65500 11.99799 36976 ft 416 kts 233°
2026-05-07 14:14 46.61998 11.93132 36980 ft 416 kts 234°
2026-05-07 14:15 46.58481 11.86434 36970 ft 415 kts 233°
2026-05-07 14:15 46.54961 11.79755 36982 ft 416 kts 234°
2026-05-07 14:16 46.51459 11.73121 36982 ft 415 kts 234°
2026-05-07 14:16 46.47934 11.66465 36969 ft 415 kts 234°
2026-05-07 14:17 46.44428 11.59858 36965 ft 415 kts 234°
2026-05-07 14:17 46.40897 11.53216 36979 ft 415 kts 233°
2026-05-07 14:18 46.37372 11.46615 36970 ft 414 kts 234°
2026-05-07 14:18 46.33841 11.40005 36979 ft 414 kts 234°
2026-05-07 14:19 46.30333 11.33456 36984 ft 413 kts 233°
2026-05-07 14:19 46.26813 11.26907 36985 ft 413 kts 234°
2026-05-07 14:19 46.25043 11.23613 37087 ft 413 kts 234°
2026-05-07 14:20 46.23869 11.21432 37083 ft 413 kts 234°
2026-05-07 14:20 46.19765 11.13823 37064 ft 413 kts 234°
2026-05-07 14:21 46.16814 11.08357 37058 ft 413 kts 234°
2026-05-07 14:21 46.13271 11.01827 37032 ft 413 kts 234°
2026-05-07 14:22 46.09140 10.94218 37020 ft 415 kts 233°
2026-05-07 14:22 46.06180 10.88782 36998 ft 414 kts 233°
2026-05-07 14:23 46.02628 10.82276 36982 ft 414 kts 234°
2026-05-07 14:23 45.99070 10.75773 36981 ft 413 kts 234°
2026-05-07 14:24 45.95496 10.69267 36991 ft 413 kts 234°
2026-05-07 14:24 45.91942 10.62793 36991 ft 414 kts 234°
2026-05-07 14:25 45.88388 10.56327 36982 ft 414 kts 233°
2026-05-07 14:25 45.84818 10.49856 36972 ft 413 kts 234°
2026-05-07 14:26 45.81248 10.43417 36985 ft 412 kts 234°
2026-05-07 14:26 45.77678 10.36977 36988 ft 412 kts 234°
2026-05-07 14:27 45.74120 10.30569 36988 ft 411 kts 233°
2026-05-07 14:27 45.70545 10.24158 36968 ft 411 kts 234°
2026-05-07 14:28 45.66981 10.17778 36975 ft 411 kts 233°
2026-05-07 14:28 45.63421 10.11423 36975 ft 410 kts 233°
2026-05-07 14:29 45.59871 10.05092 36976 ft 410 kts 233°
2026-05-07 14:29 45.56291 9.98714 36990 ft 410 kts 233°
2026-05-07 14:30 45.52730 9.92384 36975 ft 410 kts 233°
2026-05-07 14:30 45.49149 9.86039 36987 ft 409 kts 233°
2026-05-07 14:31 45.45603 9.79782 36992 ft 408 kts 233°
2026-05-07 14:31 45.42031 9.73482 37044 ft 408 kts 233°
2026-05-07 14:32 45.38455 9.67199 37042 ft 408 kts 233°
2026-05-07 14:32 45.34879 9.60927 37024 ft 408 kts 233°
2026-05-07 14:33 45.31294 9.54647 37021 ft 408 kts 233°
2026-05-07 14:33 45.27722 9.48403 37013 ft 408 kts 233°
2026-05-07 14:34 45.24145 9.42169 37002 ft 408 kts 233°
2026-05-07 14:34 45.20560 9.35930 36988 ft 408 kts 233°
2026-05-07 14:35 45.16978 9.29710 36977 ft 407 kts 233°
2026-05-07 14:35 45.13396 9.23495 36995 ft 407 kts 233°
2026-05-07 14:36 45.09799 9.17277 36989 ft 408 kts 233°
2026-05-07 14:36 45.06218 9.11104 36989 ft 408 kts 233°
2026-05-07 14:37 45.02613 9.04913 36992 ft 408 kts 233°
2026-05-07 14:37 44.97204 8.95638 36993 ft 407 kts 233°
2026-05-07 14:38 44.93608 8.89473 36999 ft 407 kts 232°
2026-05-07 14:38 44.90017 8.83340 36999 ft 407 kts 232°
2026-05-07 14:39 44.86387 8.77169 37013 ft 407 kts 232°
2026-05-07 14:39 44.82771 8.71024 36992 ft 407 kts 232°
2026-05-07 14:40 44.79180 8.64928 37000 ft 407 kts 232°
2026-05-07 14:40 44.75551 8.58775 37002 ft 407 kts 232°
2026-05-07 14:41 44.71948 8.52683 37001 ft 407 kts 232°
2026-05-07 14:41 44.68345 8.46619 37004 ft 407 kts 232°
2026-05-07 14:42 44.64719 8.40527 37000 ft 406 kts 232°
2026-05-07 14:42 44.61079 8.34425 37005 ft 406 kts 232°
2026-05-07 14:43 44.57468 8.28358 37005 ft 405 kts 232°
2026-05-07 14:43 44.53849 8.22308 37008 ft 406 kts 232°
2026-05-07 14:44 44.50223 8.16273 37007 ft 405 kts 232°
2026-05-07 14:44 44.46604 8.10243 37005 ft 405 kts 232°
2026-05-07 14:45 44.42956 8.04185 36998 ft 405 kts 232°
2026-05-07 14:45 44.39322 7.98178 37004 ft 405 kts 231°
2026-05-07 14:46 44.35679 7.92146 37013 ft 405 kts 231°
2026-05-07 14:46 44.32043 7.86138 36996 ft 405 kts 231°
2026-05-07 14:47 44.28398 7.80151 37005 ft 405 kts 231°
2026-05-07 14:47 44.24396 7.74634 37009 ft 407 kts 224°
2026-05-07 14:48 44.20158 7.69416 37009 ft 407 kts 224°
2026-05-07 14:48 44.15911 7.64202 36999 ft 407 kts 224°
2026-05-07 14:49 44.12045 7.58506 37026 ft 404 kts 231°
2026-05-07 14:49 44.08377 7.52622 37020 ft 403 kts 231°
2026-05-07 14:50 44.04847 7.46621 37022 ft 402 kts 238°
2026-05-07 14:50 44.01812 7.40085 37024 ft 402 kts 238°
2026-05-07 14:51 43.98798 7.33560 37004 ft 402 kts 238°
2026-05-07 14:51 43.95754 7.27016 37017 ft 401 kts 238°
2026-05-07 14:52 43.92718 7.20527 37020 ft 401 kts 238°
2026-05-07 14:52 43.89683 7.14032 37022 ft 401 kts 238°
2026-05-07 14:53 43.86671 7.07593 37022 ft 400 kts 238°
2026-05-07 14:53 43.83645 7.01124 37022 ft 400 kts 238°
2026-05-07 14:54 43.80609 6.94662 37005 ft 400 kts 237°
2026-05-07 14:54 43.77559 6.88185 37017 ft 400 kts 237°
2026-05-07 14:55 43.74520 6.81762 37019 ft 399 kts 237°
2026-05-07 14:55 43.71500 6.75381 37016 ft 399 kts 237°
2026-05-07 14:56 43.68447 6.68941 37006 ft 399 kts 237°
2026-05-07 14:56 43.65399 6.62534 37006 ft 399 kts 237°
2026-05-07 14:57 43.62353 6.56154 37004 ft 398 kts 237°
2026-05-07 14:57 43.59306 6.49778 36979 ft 398 kts 237°
2026-05-07 14:58 43.56285 6.43457 36991 ft 398 kts 237°
2026-05-07 14:58 43.53234 6.37096 36978 ft 397 kts 237°
2026-05-07 14:59 43.50177 6.30740 36974 ft 397 kts 237°
2026-05-07 14:59 43.47120 6.24396 36972 ft 397 kts 237°
2026-05-07 15:00 43.44091 6.18106 36959 ft 396 kts 237°
2026-05-07 15:00 43.41037 6.11776 36980 ft 395 kts 237°
2026-05-07 15:01 43.37989 6.05496 37004 ft 395 kts 236°
2026-05-07 15:01 43.34929 5.99223 37015 ft 395 kts 236°
2026-05-07 15:02 43.31900 5.92994 37011 ft 394 kts 236°
2026-05-07 15:02 43.28843 5.86720 37008 ft 394 kts 236°
2026-05-07 15:03 43.25799 5.80496 36995 ft 394 kts 236°
2026-05-07 15:03 43.22739 5.74257 37005 ft 393 kts 236°
2026-05-07 15:04 43.19688 5.68034 37019 ft 393 kts 236°
2026-05-07 15:04 43.16641 5.61841 37012 ft 392 kts 236°
2026-05-07 15:05 43.13578 5.55630 37011 ft 392 kts 236°
2026-05-07 15:05 43.10527 5.49451 37010 ft 392 kts 236°
2026-05-07 15:06 43.07470 5.43274 37001 ft 391 kts 236°
2026-05-07 15:06 43.04431 5.37151 37005 ft 391 kts 236°
2026-05-07 15:07 43.01375 5.31000 37029 ft 391 kts 236°
2026-05-07 15:07 42.98335 5.24885 37017 ft 390 kts 236°
2026-05-07 15:08 42.95272 5.18755 37015 ft 390 kts 236°
2026-05-07 15:08 42.92206 5.12635 37009 ft 389 kts 236°
2026-05-07 15:09 42.89165 5.06574 36995 ft 389 kts 235°
2026-05-07 15:09 42.86107 5.00486 37004 ft 388 kts 235°
2026-05-07 15:10 42.83050 4.94403 37031 ft 388 kts 235°
2026-05-07 15:10 42.80011 4.88374 37021 ft 387 kts 235°
2026-05-07 15:11 42.76953 4.82334 37012 ft 387 kts 235°
2026-05-07 15:11 42.74403 4.77302 37011 ft 387 kts 235°
2026-05-07 15:12 42.71349 4.71277 37007 ft 387 kts 235°
2026-05-07 15:12 42.68299 4.65272 37007 ft 387 kts 235°
2026-05-07 15:13 42.65240 4.59263 37005 ft 387 kts 235°
2026-05-07 15:13 42.62176 4.53246 37016 ft 387 kts 234°
2026-05-07 15:14 42.59111 4.47264 37012 ft 387 kts 234°
2026-05-07 15:14 42.56029 4.41258 37006 ft 388 kts 234°
2026-05-07 15:15 42.52946 4.35238 36986 ft 388 kts 234°
2026-05-07 15:15 42.49882 4.29271 36998 ft 387 kts 234°
2026-05-07 15:16 42.46803 4.23295 37003 ft 387 kts 234°
2026-05-07 15:16 42.43721 4.17340 37023 ft 387 kts 234°
2026-05-07 15:17 42.40625 4.11373 37007 ft 387 kts 234°
2026-05-07 15:17 42.37523 4.05398 37007 ft 387 kts 234°
2026-05-07 15:18 42.34429 3.99431 37001 ft 388 kts 234°
2026-05-07 15:18 42.31347 3.93511 36985 ft 388 kts 234°
2026-05-07 15:19 42.28233 3.87543 36993 ft 388 kts 234°
2026-05-07 15:19 42.25125 3.81575 36997 ft 388 kts 234°
2026-05-07 15:20 42.22023 3.75642 37009 ft 388 kts 233°
2026-05-07 15:20 42.18902 3.69696 37005 ft 389 kts 233°
2026-05-07 15:21 42.15762 3.63728 37005 ft 389 kts 233°
2026-05-07 15:21 42.12638 3.57809 36989 ft 389 kts 233°
2026-05-07 15:22 42.09499 3.51875 36993 ft 389 kts 233°
2026-05-07 15:22 42.06355 3.45926 36995 ft 389 kts 233°
2026-05-07 15:23 42.03226 3.40019 36996 ft 389 kts 233°
2026-05-07 15:23 42.00075 3.34080 36998 ft 390 kts 233°
2026-05-07 15:24 41.96937 3.28171 36998 ft 390 kts 233°
2026-05-07 15:24 41.93794 3.22267 36976 ft 390 kts 233°
2026-05-07 15:25 41.90633 3.16344 36984 ft 389 kts 233°
2026-05-07 15:25 41.87480 3.10452 36988 ft 389 kts 232°
2026-05-07 15:26 41.84311 3.04549 37018 ft 389 kts 232°
2026-05-07 15:26 41.81134 2.98648 37005 ft 390 kts 232°
2026-05-07 15:27 41.77980 2.92796 36998 ft 390 kts 233°
2026-05-07 15:27 41.74805 2.86899 36992 ft 390 kts 232°
2026-05-07 15:28 41.71620 2.80997 36982 ft 390 kts 232°
2026-05-07 15:28 41.68426 2.75112 36985 ft 390 kts 232°
2026-05-07 15:29 41.65161 2.69338 36986 ft 390 kts 230°
2026-05-07 15:29 41.61824 2.63672 36998 ft 390 kts 230°
2026-05-07 15:30 41.58458 2.57980 36992 ft 390 kts 230°
2026-05-07 15:30 41.55109 2.52261 36988 ft 391 kts 231°
2026-05-07 15:31 41.51768 2.46519 36977 ft 391 kts 230°
2026-05-07 15:31 41.48428 2.40810 36980 ft 391 kts 230°
2026-05-07 15:32 41.45072 2.35109 36981 ft 391 kts 230°
2026-05-07 15:32 41.41730 2.29436 36983 ft 391 kts 230°
2026-05-07 15:33 41.38382 2.23746 36996 ft 391 kts 230°
2026-05-07 15:33 41.35010 2.18040 36992 ft 391 kts 230°
2026-05-07 15:34 41.31652 2.12368 36971 ft 392 kts 230°
2026-05-07 15:34 41.28172 2.06787 36973 ft 391 kts 227°
2026-05-07 15:35 41.24511 2.01440 36974 ft 391 kts 226°
2026-05-07 15:35 41.20829 1.96118 36975 ft 391 kts 226°
2026-05-07 15:36 41.17170 1.90750 36998 ft 392 kts 227°
2026-05-07 15:36 41.13521 1.85356 36984 ft 392 kts 227°
2026-05-07 15:37 41.09875 1.79977 36965 ft 393 kts 227°
2026-05-07 15:37 41.06221 1.74610 36957 ft 394 kts 227°
2026-05-07 15:38 41.02543 1.69221 36960 ft 394 kts 227°
2026-05-07 15:38 40.98876 1.63850 36959 ft 394 kts 227°
2026-05-07 15:39 40.95193 1.58471 36959 ft 394 kts 227°
2026-05-07 15:39 40.91524 1.53111 36959 ft 394 kts 227°
2026-05-07 15:40 40.87813 1.47705 36951 ft 395 kts 227°
2026-05-07 15:40 40.84137 1.42360 36951 ft 395 kts 227°
2026-05-07 15:41 40.80428 1.36983 36951 ft 396 kts 227°
2026-05-07 15:41 40.76717 1.31613 36954 ft 396 kts 227°
2026-05-07 15:42 40.73015 1.26275 36954 ft 396 kts 227°
2026-05-07 15:42 40.69278 1.20893 36961 ft 397 kts 227°
2026-05-07 15:43 40.65577 1.15553 36961 ft 397 kts 227°
2026-05-07 15:43 40.61855 1.10192 36976 ft 397 kts 227°
2026-05-07 15:44 40.58117 1.04816 36972 ft 397 kts 227°
2026-05-07 15:44 40.54377 0.99439 36971 ft 398 kts 227°
2026-05-07 15:45 40.50647 0.94102 36970 ft 398 kts 227°
2026-05-07 15:45 40.46904 0.88772 36954 ft 398 kts 227°
2026-05-07 15:46 40.41264 0.80741 36966 ft 398 kts 227°
2026-05-07 15:47 40.37505 0.75403 36978 ft 398 kts 227°
2026-05-07 15:47 40.33755 0.70090 36958 ft 399 kts 227°
2026-05-07 15:48 40.29972 0.64738 36951 ft 400 kts 227°
2026-05-07 15:48 40.26171 0.59365 36953 ft 401 kts 227°
2026-05-07 15:49 40.22400 0.54039 36936 ft 401 kts 227°
2026-05-07 15:49 40.18581 0.48661 36946 ft 402 kts 227°
2026-05-07 15:50 40.14775 0.43310 36953 ft 402 kts 227°
2026-05-07 15:50 40.10958 0.37955 36972 ft 403 kts 227°
2026-05-07 15:51 40.07125 0.32595 36947 ft 404 kts 227°
2026-05-07 15:51 40.03298 0.27248 36947 ft 406 kts 227°
2026-05-07 15:52 39.99434 0.21856 36924 ft 407 kts 227°
2026-05-07 15:52 39.95559 0.16449 36930 ft 407 kts 227°
2026-05-07 15:53 39.91694 0.11052 36940 ft 408 kts 227°
2026-05-07 15:53 39.87839 0.05694 36947 ft 408 kts 227°
2026-05-07 15:54 39.83942 0.00300 36948 ft 409 kts 227°
2026-05-07 15:54 39.80042 -0.05092 36930 ft 410 kts 228°
2026-05-07 15:55 39.76124 -0.10500 36934 ft 411 kts 228°
2026-05-07 15:55 39.72219 -0.15891 36938 ft 411 kts 228°
2026-05-07 15:56 39.68287 -0.21312 36943 ft 412 kts 228°
2026-05-07 15:56 39.65017 -0.25805 36949 ft 412 kts 228°
2026-05-07 15:57 39.61076 -0.31205 36953 ft 412 kts 228°
2026-05-07 15:57 39.57131 -0.36610 36947 ft 412 kts 228°
2026-05-07 15:58 39.53211 -0.41971 36960 ft 412 kts 228°
2026-05-07 15:58 39.49267 -0.47344 36957 ft 411 kts 228°
2026-05-07 15:59 39.45731 -0.53140 36957 ft 410 kts 234°
2026-05-07 15:59 39.42295 -0.59033 36958 ft 410 kts 233°
2026-05-07 16:00 39.38834 -0.64927 36956 ft 410 kts 233°
2026-05-07 16:00 39.35401 -0.70768 36968 ft 410 kts 233°
2026-05-07 16:01 39.31953 -0.76629 36975 ft 410 kts 234°
2026-05-07 16:01 39.28483 -0.82502 36976 ft 411 kts 234°
2026-05-07 16:02 39.25008 -0.88368 36977 ft 411 kts 234°
2026-05-07 16:02 39.21546 -0.94219 36988 ft 411 kts 234°
2026-05-07 16:03 39.18078 -1.00067 36984 ft 411 kts 234°
2026-05-07 16:03 39.14615 -1.05890 36984 ft 411 kts 234°
2026-05-07 16:04 39.11137 -1.11741 36975 ft 411 kts 234°
2026-05-07 16:04 39.07651 -1.17589 36999 ft 410 kts 235°
2026-05-07 16:05 39.04174 -1.23397 37006 ft 410 kts 235°
2026-05-07 16:05 39.00716 -1.29177 37007 ft 410 kts 235°
2026-05-07 16:06 38.97229 -1.34993 37001 ft 409 kts 235°
2026-05-07 16:06 38.93776 -1.40745 37005 ft 409 kts 235°
2026-05-07 16:07 38.90282 -1.46547 37009 ft 409 kts 235°
2026-05-07 16:07 38.86819 -1.52292 36985 ft 409 kts 235°
2026-05-07 16:08 38.83334 -1.58070 36998 ft 408 kts 237°
2026-05-07 16:08 38.79852 -1.63811 37003 ft 408 kts 237°
2026-05-07 16:09 38.76383 -1.69540 37006 ft 407 kts 237°
2026-05-07 16:09 38.72892 -1.75286 37007 ft 407 kts 237°
2026-05-07 16:10 38.69419 -1.80998 37001 ft 407 kts 236°
2026-05-07 16:10 38.65948 -1.86690 36990 ft 407 kts 236°
2026-05-07 16:11 38.62452 -1.92412 36941 ft 407 kts 238°
2026-05-07 16:11 38.58976 -1.98094 36959 ft 408 kts 238°
2026-05-07 16:12 38.55470 -2.03803 36966 ft 408 kts 238°
2026-05-07 16:12 38.51957 -2.09527 36972 ft 409 kts 238°
2026-05-07 16:13 38.48454 -2.15232 36978 ft 409 kts 237°
2026-05-07 16:13 38.44936 -2.20946 36981 ft 409 kts 238°
2026-05-07 16:14 38.41419 -2.26647 36981 ft 409 kts 237°
2026-05-07 16:14 38.37913 -2.32321 36982 ft 409 kts 238°
2026-05-07 16:15 38.34180 -2.37845 36989 ft 412 kts 233°
2026-05-07 16:15 38.30257 -2.43117 36990 ft 412 kts 233°
2026-05-07 16:16 38.26314 -2.48414 36981 ft 411 kts 233°
2026-05-07 16:16 38.22360 -2.53702 36982 ft 411 kts 233°
2026-05-07 16:17 38.18433 -2.58955 36978 ft 411 kts 233°
2026-05-07 16:17 38.14487 -2.64227 36953 ft 410 kts 234°
2026-05-07 16:18 38.10560 -2.69458 36981 ft 408 kts 233°
2026-05-07 16:18 38.06653 -2.74658 36988 ft 406 kts 233°
2026-05-07 16:19 38.02764 -2.79830 36979 ft 404 kts 233°
2026-05-07 16:19 37.98896 -2.84961 36979 ft 403 kts 233°
2026-05-07 16:20 37.95031 -2.90074 36965 ft 403 kts 233°
2026-05-07 16:20 37.91147 -2.95205 36937 ft 402 kts 233°
2026-05-07 16:21 37.87279 -3.00307 36953 ft 401 kts 233°
2026-05-07 16:21 37.83416 -3.05396 36935 ft 400 kts 233°
2026-05-07 16:22 37.79578 -3.10455 36947 ft 400 kts 233°
2026-05-07 16:22 37.75723 -3.15517 36959 ft 400 kts 233°
2026-05-07 16:23 37.71859 -3.20583 36950 ft 400 kts 233°
2026-05-07 16:23 37.67998 -3.25655 36939 ft 400 kts 233°
2026-05-07 16:24 37.64137 -3.30715 36926 ft 400 kts 233°
2026-05-07 16:24 37.60271 -3.35755 36932 ft 399 kts 233°
2026-05-07 16:25 37.56421 -3.40759 36945 ft 399 kts 233°
2026-05-07 16:25 37.52571 -3.45772 36936 ft 398 kts 233°
2026-05-07 16:26 37.48715 -3.50792 36939 ft 398 kts 233°
2026-05-07 16:26 37.44845 -3.55814 36940 ft 398 kts 233°
2026-05-07 16:27 37.40995 -3.60786 36903 ft 399 kts 231°
2026-05-07 16:27 37.36383 -3.64890 36913 ft 416 kts 214°
2026-05-07 16:28 37.31181 -3.68117 36910 ft 417 kts 214°
2026-05-07 16:28 37.25995 -3.71327 36921 ft 418 kts 214°
2026-05-07 16:29 37.20771 -3.74557 36925 ft 418 kts 214°
2026-05-07 16:29 37.15567 -3.77780 36878 ft 418 kts 214°
2026-05-07 16:30 37.10344 -3.81024 36885 ft 418 kts 215°
2026-05-07 16:30 37.05167 -3.84234 36902 ft 418 kts 214°
2026-05-07 16:31 36.99942 -3.87449 36916 ft 418 kts 214°
2026-05-07 16:31 36.94719 -3.90664 36919 ft 418 kts 214°
2026-05-07 16:32 36.89520 -3.93863 36892 ft 418 kts 214°
2026-05-07 16:32 36.84295 -3.97068 36914 ft 419 kts 214°
2026-05-07 16:33 36.79064 -4.00275 36915 ft 418 kts 214°
2026-05-07 16:33 36.73921 -4.03621 36913 ft 408 kts 226°
2026-05-07 16:33 36.72044 -4.06161 36914 ft 388 kts 245°
2026-05-07 16:34 36.71096 -4.09224 36911 ft 376 kts 264°
2026-05-07 16:34 36.71023 -4.15669 36902 ft 374 kts 278°
2026-05-07 16:34 36.71728 -4.18759 36900 ft 377 kts 293°
2026-05-07 16:35 36.73116 -4.21571 36898 ft 381 kts 300°
2026-05-07 16:35 36.76132 -4.26983 36900 ft 383 kts 301°
2026-05-07 16:36 36.79178 -4.32432 36898 ft 384 kts 300°
2026-05-07 16:36 36.82232 -4.37919 36910 ft 385 kts 300°
2026-05-07 16:36 36.83529 -4.40778 36905 ft 378 kts 286°
2026-05-07 16:37 36.83983 -4.44015 36905 ft 375 kts 271°
2026-05-07 16:37 36.83960 -4.50489 36902 ft 376 kts 270°
2026-05-07 16:38 36.84229 -4.57008 36893 ft 376 kts 288°
2026-05-07 16:38 36.85510 -4.59825 36886 ft 383 kts 305°
2026-05-07 16:38 36.87323 -4.62331 36887 ft 387 kts 308°
2026-05-07 16:39 36.91161 -4.67089 36925 ft 391 kts 311°
2026-05-07 16:39 36.93407 -4.69046 36894 ft 406 kts 330°
2026-05-07 16:39 36.96184 -4.69898 36890 ft 421 kts 344°
2026-05-07 16:40 37.02106 -4.70148 36891 ft 419 kts 353°
2026-05-07 16:40 37.07816 -4.69800 36889 ft 405 kts 352°
2026-05-07 16:41 37.13403 -4.69648 36890 ft 401 kts 350°
2026-05-07 16:41 37.18790 -4.70462 36888 ft 370 kts 323°
2026-05-07 16:41 37.20718 -4.72381 36884 ft 349 kts 300°
2026-05-07 16:42 37.21715 -4.75100 36878 ft 339 kts 277°
2026-05-07 16:42 37.21588 -4.78017 36880 ft 343 kts 254°
2026-05-07 16:42 37.20376 -4.80613 36878 ft 359 kts 231°
2026-05-07 16:42 37.18253 -4.82385 36879 ft 383 kts 208°
2026-05-07 16:43 37.15526 -4.82947 36882 ft 411 kts 185°
2026-05-07 16:43 37.12673 -4.82388 36870 ft 426 kts 176°
2026-05-07 16:43 37.09745 -4.81571 36886 ft 427 kts 176°
2026-05-07 16:44 37.03935 -4.80047 36887 ft 421 kts 183°
2026-05-07 16:44 36.98165 -4.79636 36892 ft 412 kts 190°
2026-05-07 16:45 36.93397 -4.79657 36890 ft 418 kts 182°
2026-05-07 16:45 36.89574 -4.78310 36857 ft 438 kts 167°
2026-05-07 16:45 36.87688 -4.77368 36878 ft 438 kts 166°
2026-05-07 16:46 36.81203 -4.73595 36895 ft 444 kts 160°
2026-05-07 16:46 36.76892 -4.69985 36909 ft 461 kts 140°
2026-05-07 16:46 36.74847 -4.66815 36918 ft 470 kts 126°
2026-05-07 16:47 36.73273 -4.63221 36918 ft 475 kts 117°
2026-05-07 16:47 36.70774 -4.55580 36923 ft 478 kts 114°
2026-05-07 16:48 36.68126 -4.48005 36919 ft 477 kts 118°
2026-05-07 16:48 36.65859 -4.40231 36929 ft 480 kts 106°
2026-05-07 16:49 36.64389 -4.32134 36918 ft 481 kts 102°
2026-05-07 16:49 36.63079 -4.23999 36917 ft 480 kts 103°
2026-05-07 16:50 36.61681 -4.15862 36920 ft 480 kts 104°
2026-05-07 16:50 36.60177 -4.07712 36911 ft 480 kts 104°
2026-05-07 16:51 36.58686 -3.99680 36924 ft 480 kts 104°
2026-05-07 16:51 36.57211 -3.91577 36913 ft 479 kts 104°
2026-05-07 16:52 36.55738 -3.83488 36921 ft 479 kts 104°
2026-05-07 16:52 36.54242 -3.75401 36915 ft 479 kts 104°
2026-05-07 16:53 36.52751 -3.67370 36916 ft 479 kts 104°
2026-05-07 16:53 36.51250 -3.59296 36932 ft 479 kts 104°
2026-05-07 16:54 36.49748 -3.51213 36917 ft 479 kts 104°
2026-05-07 16:54 36.48238 -3.43161 36924 ft 479 kts 104°
2026-05-07 16:55 36.46731 -3.35120 36923 ft 480 kts 104°
2026-05-07 16:55 36.45206 -3.27040 36905 ft 479 kts 104°
2026-05-07 16:56 36.43680 -3.18984 36922 ft 478 kts 104°
2026-05-07 16:56 36.41396 -3.06968 36923 ft 478 kts 105°
2026-05-07 16:57 36.39857 -2.98906 36922 ft 479 kts 104°
2026-05-07 16:57 36.38310 -2.90855 36920 ft 480 kts 104°
2026-05-07 16:58 36.36757 -2.82801 36920 ft 480 kts 105°
2026-05-07 16:58 36.35194 -2.74742 36923 ft 480 kts 105°
2026-05-07 16:59 36.33634 -2.66733 36931 ft 480 kts 105°
2026-05-07 16:59 36.32063 -2.58670 36919 ft 481 kts 105°
2026-05-07 17:00 36.30487 -2.50593 36926 ft 482 kts 105°
2026-05-07 17:00 36.28905 -2.42566 36924 ft 482 kts 105°
2026-05-07 17:01 36.27306 -2.34490 36921 ft 481 kts 105°
2026-05-07 17:01 36.25705 -2.26404 36925 ft 482 kts 105°
2026-05-07 17:02 36.24111 -2.18374 36925 ft 483 kts 105°
2026-05-07 17:02 36.22502 -2.10302 36906 ft 478 kts 105°
2026-05-07 17:03 36.20904 -2.02342 36925 ft 476 kts 105°
2026-05-07 17:03 36.19309 -1.94427 36925 ft 475 kts 105°
2026-05-07 17:04 36.17709 -1.86491 36923 ft 476 kts 105°
2026-05-07 17:04 36.16091 -1.78501 36915 ft 476 kts 105°
2026-05-07 17:05 36.14486 -1.70598 36928 ft 476 kts 106°
2026-05-07 17:05 36.12867 -1.62645 36921 ft 476 kts 106°
2026-05-07 17:06 36.11241 -1.54713 36920 ft 476 kts 106°
2026-05-07 17:06 36.09603 -1.46762 36920 ft 476 kts 106°
2026-05-07 17:07 36.07973 -1.38870 36922 ft 476 kts 106°
2026-05-07 17:07 36.06332 -1.30935 36925 ft 476 kts 106°
2026-05-07 17:08 36.04690 -1.22996 36924 ft 476 kts 106°
2026-05-07 17:08 36.03046 -1.15082 36921 ft 476 kts 106°
2026-05-07 17:09 36.01370 -1.07134 36918 ft 477 kts 107°
2026-05-07 17:09 35.99697 -0.99195 36918 ft 478 kts 106°
2026-05-07 17:10 35.98032 -0.91240 36916 ft 478 kts 106°
2026-05-07 17:10 35.96360 -0.83308 36923 ft 478 kts 107°
2026-05-07 17:11 35.94674 -0.75382 36932 ft 478 kts 107°
2026-05-07 17:11 35.92988 -0.67460 36928 ft 479 kts 107°
2026-05-07 17:12 35.91280 -0.59491 36924 ft 479 kts 107°
2026-05-07 17:12 35.89573 -0.51542 36928 ft 479 kts 107°
2026-05-07 17:13 35.87860 -0.43584 36923 ft 480 kts 107°
2026-05-07 17:13 35.86266 -0.35597 36922 ft 480 kts 94°
2026-05-07 17:14 35.86440 -0.31558 36918 ft 475 kts 71°
2026-05-07 17:14 35.87707 -0.27848 36924 ft 461 kts 48°
2026-05-07 17:14 35.89831 -0.25054 36928 ft 441 kts 25°
2026-05-07 17:14 35.92485 -0.23340 36922 ft 426 kts 13°
2026-05-07 17:15 35.95144 -0.21648 36912 ft 441 kts 28°
2026-05-07 17:15 35.97355 -0.18913 36919 ft 460 kts 52°
2026-05-07 17:15 35.98696 -0.15309 36923 ft 473 kts 75°
2026-05-07 17:15 35.98972 -0.11221 36913 ft 477 kts 98°
2026-05-07 17:16 35.98118 -0.07305 36918 ft 471 kts 120°
2026-05-07 17:16 35.96597 -0.03754 36913 ft 472 kts 123°
2026-05-07 17:16 35.93466 0.03349 36916 ft 474 kts 122°
2026-05-07 17:17 35.90314 0.10487 36921 ft 474 kts 122°
2026-05-07 17:17 35.87152 0.17641 36922 ft 474 kts 122°
2026-05-07 17:18 35.83988 0.24798 36927 ft 474 kts 122°
2026-05-07 17:18 35.80825 0.31944 36925 ft 474 kts 122°
2026-05-07 17:19 35.77680 0.39045 36918 ft 474 kts 122°
2026-05-07 17:19 35.74537 0.46141 36916 ft 472 kts 122°
2026-05-07 17:20 35.71391 0.53243 36926 ft 471 kts 122°
2026-05-07 17:20 35.68258 0.60314 36926 ft 471 kts 122°
2026-05-07 17:21 35.65137 0.67355 36925 ft 470 kts 122°
2026-05-07 17:21 35.62014 0.74422 36925 ft 470 kts 120°
2026-05-07 17:22 35.60931 0.78187 36922 ft 473 kts 99°
2026-05-07 17:22 35.60868 0.82234 36928 ft 470 kts 76°
2026-05-07 17:22 35.61913 0.85960 36925 ft 459 kts 53°
2026-05-07 17:22 35.63873 0.88896 36927 ft 441 kts 30°
2026-05-07 17:23 35.66466 0.90757 36927 ft 424 kts 14°
2026-05-07 17:23 35.69166 0.92340 36916 ft 435 kts 25°
2026-05-07 17:23 35.71440 0.94810 36927 ft 453 kts 48°
2026-05-07 17:23 35.72936 0.98256 36925 ft 465 kts 71°
2026-05-07 17:24 35.73379 1.02240 36929 ft 470 kts 95°
2026-05-07 17:24 35.72691 1.06130 36930 ft 466 kts 118°
2026-05-07 17:24 35.69608 1.13141 36928 ft 467 kts 123°
2026-05-07 17:25 35.66500 1.20130 36925 ft 463 kts 122°
2026-05-07 17:25 35.63473 1.27104 36932 ft 462 kts 122°
2026-05-07 17:26 35.60519 1.34073 36943 ft 462 kts 121°
2026-05-07 17:26 35.57601 1.41124 36949 ft 462 kts 120°
2026-05-07 17:27 35.54738 1.48213 36956 ft 463 kts 120°
2026-05-07 17:27 35.51947 1.55296 36955 ft 461 kts 119°
2026-05-07 17:28 35.49218 1.62405 36955 ft 459 kts 119°
2026-05-07 17:28 35.46568 1.69485 36947 ft 458 kts 118°
2026-05-07 17:29 35.43962 1.76626 36941 ft 458 kts 118°
2026-05-07 17:29 35.41421 1.83769 36934 ft 459 kts 117°
2026-05-07 17:30 35.38924 1.90971 36917 ft 459 kts 116°
2026-05-07 17:30 35.36492 1.98179 36928 ft 455 kts 117°
2026-05-07 17:31 35.34137 2.05351 36926 ft 455 kts 116°
2026-05-07 17:31 35.31827 2.12577 36928 ft 455 kts 115°
2026-05-07 17:32 35.29570 2.19830 36931 ft 456 kts 115°
2026-05-07 17:32 35.27728 2.25898 36931 ft 456 kts 114°
2026-05-07 17:33 35.25573 2.33184 36930 ft 455 kts 115°
2026-05-07 17:33 35.23477 2.40480 36929 ft 454 kts 114°
2026-05-07 17:34 35.21428 2.47811 36935 ft 455 kts 114°
2026-05-07 17:34 35.19436 2.55139 36939 ft 457 kts 113°
2026-05-07 17:35 35.17479 2.62551 36945 ft 457 kts 113°
2026-05-07 17:35 35.15575 2.69981 36942 ft 457 kts 113°
2026-05-07 17:36 35.13592 2.77318 36936 ft 447 kts 126°
2026-05-07 17:36 35.11778 2.80218 36948 ft 421 kts 149°
2026-05-07 17:36 35.09332 2.81981 36954 ft 394 kts 173°
2026-05-07 17:37 35.06718 2.82366 36953 ft 369 kts 196°
2026-05-07 17:37 35.04308 2.81605 36956 ft 361 kts 204°
2026-05-07 17:37 35.01823 2.80923 36950 ft 372 kts 191°
2026-05-07 17:37 34.99221 2.81248 36957 ft 394 kts 169°
2026-05-07 17:38 34.96776 2.82896 36960 ft 418 kts 146°
2026-05-07 17:38 34.94895 2.85741 36945 ft 440 kts 124°
2026-05-07 17:38 34.93763 2.89264 36958 ft 455 kts 109°
2026-05-07 17:38 34.93346 2.93105 36959 ft 464 kts 98°
2026-05-07 17:39 34.92914 3.00956 36960 ft 465 kts 98°
2026-05-07 17:39 34.92410 3.08802 36957 ft 464 kts 101°
2026-05-07 17:40 34.91833 3.16637 36959 ft 464 kts 101°
2026-05-07 17:40 34.91186 3.24410 36953 ft 463 kts 102°
2026-05-07 17:41 34.90462 3.32217 36952 ft 462 kts 103°
2026-05-07 17:41 34.89665 3.40001 36947 ft 462 kts 103°
2026-05-07 17:42 34.88799 3.47720 36947 ft 462 kts 104°
2026-05-07 17:42 34.87856 3.55448 36936 ft 461 kts 105°
2026-05-07 17:43 34.86839 3.63166 36934 ft 460 kts 105°
2026-05-07 17:43 34.85749 3.70849 36934 ft 460 kts 107°
2026-05-07 17:44 34.84585 3.78504 36937 ft 459 kts 107°
2026-05-07 17:44 34.83348 3.86127 36921 ft 461 kts 109°
2026-05-07 17:45 34.82035 3.93722 36923 ft 460 kts 109°
2026-05-07 17:45 34.80642 4.01326 36915 ft 460 kts 110°
2026-05-07 17:46 34.79174 4.08911 36915 ft 459 kts 111°
2026-05-07 17:46 34.77634 4.16445 36907 ft 458 kts 111°
2026-05-07 17:47 34.76026 4.23915 36908 ft 459 kts 113°
2026-05-07 17:47 34.74337 4.31380 36896 ft 458 kts 114°
2026-05-07 17:48 34.72572 4.38815 36901 ft 457 kts 115°
2026-05-07 17:48 34.70723 4.46241 36889 ft 457 kts 116°
2026-05-07 17:49 34.68824 4.53565 36891 ft 456 kts 116°
2026-05-07 17:49 34.67860 4.61259 36886 ft 481 kts 83°
2026-05-07 17:50 34.68906 4.65117 36870 ft 489 kts 60°
2026-05-07 17:50 34.70986 4.68407 36878 ft 486 kts 37°
2026-05-07 17:50 34.73731 4.70692 36888 ft 478 kts 24°
2026-05-07 17:50 34.76517 4.72931 36856 ft 486 kts 40°
2026-05-07 17:51 34.78652 4.76078 36880 ft 489 kts 63°
2026-05-07 17:51 34.79826 4.79940 36880 ft 480 kts 86°
2026-05-07 17:51 34.79869 4.83894 36875 ft 462 kts 110°
2026-05-07 17:51 34.78857 4.87508 36881 ft 441 kts 128°
2026-05-07 17:52 34.75996 4.94065 36864 ft 442 kts 128°
2026-05-07 17:52 34.73118 5.00701 36860 ft 445 kts 128°
2026-05-07 17:53 34.70252 5.07376 36857 ft 445 kts 128°
2026-05-07 17:53 34.67412 5.14065 36858 ft 446 kts 128°
2026-05-07 17:54 34.64589 5.20793 36855 ft 446 kts 127°
2026-05-07 17:54 34.61801 5.27518 36826 ft 447 kts 127°
2026-05-07 17:55 34.59042 5.34252 36832 ft 448 kts 127°
2026-05-07 17:55 34.56293 5.41047 36848 ft 448 kts 127°
2026-05-07 17:56 34.53569 5.47862 36849 ft 448 kts 127°
2026-05-07 17:56 34.50896 5.54634 36849 ft 449 kts 127°
2026-05-07 17:57 34.48660 5.60362 36854 ft 449 kts 126°
2026-05-07 17:57 34.45588 5.68334 36852 ft 449 kts 126°
2026-05-07 17:58 34.42963 5.75234 36856 ft 452 kts 126°
2026-05-07 17:58 34.40343 5.82186 36847 ft 454 kts 126°
2026-05-07 17:59 34.37753 5.89147 36849 ft 455 kts 126°
2026-05-07 17:59 34.35186 5.96137 36841 ft 455 kts 125°
2026-05-07 18:00 34.32643 6.03158 36817 ft 455 kts 126°
2026-05-07 18:00 34.30125 6.10208 36818 ft 456 kts 126°
2026-05-07 18:01 34.27650 6.17227 36835 ft 457 kts 125°
2026-05-07 18:01 34.25179 6.24327 36827 ft 457 kts 125°
2026-05-07 18:02 34.21542 6.34964 36827 ft 458 kts 124°
2026-05-07 18:03 34.19139 6.42114 36824 ft 459 kts 124°
2026-05-07 18:03 34.16768 6.49274 36830 ft 459 kts 123°
2026-05-07 18:04 34.14415 6.56472 36815 ft 460 kts 123°
2026-05-07 18:04 34.12094 6.63675 36820 ft 461 kts 122°
2026-05-07 18:05 34.09811 6.70875 36818 ft 460 kts 122°
2026-05-07 18:05 34.07556 6.78096 36826 ft 460 kts 122°
2026-05-07 18:06 34.05335 6.85304 36784 ft 461 kts 121°
2026-05-07 18:06 34.03121 6.92591 36819 ft 462 kts 121°
2026-05-07 18:07 34.00939 6.99876 36817 ft 463 kts 120°
2026-05-07 18:07 33.98784 7.07183 36823 ft 464 kts 120°
2026-05-07 18:08 33.96520 7.14442 36815 ft 448 kts 133°
2026-05-07 18:08 33.94670 7.17189 36821 ft 408 kts 156°
2026-05-07 18:08 33.92311 7.18741 36826 ft 367 kts 180°
2026-05-07 18:08 33.89938 7.18930 36821 ft 330 kts 204°
2026-05-07 18:09 33.87849 7.17982 36823 ft 317 kts 213°
2026-05-07 18:09 33.85780 7.17012 36820 ft 328 kts 203°
2026-05-07 18:09 33.83457 7.16782 36822 ft 353 kts 185°
2026-05-07 18:09 33.81003 7.17715 36822 ft 388 kts 163°
2026-05-07 18:10 33.78849 7.19848 36817 ft 425 kts 142°
2026-05-07 18:10 33.77200 7.22960 36816 ft 452 kts 125°
2026-05-07 18:10 33.76125 7.26537 36815 ft 471 kts 110°
2026-05-07 18:11 33.75271 7.34501 36825 ft 481 kts 105°
2026-05-07 18:11 33.74441 7.42482 36821 ft 481 kts 106°
2026-05-07 18:12 33.73544 7.50400 36823 ft 480 kts 107°
2026-05-07 18:12 33.72569 7.58337 36818 ft 479 kts 107°
2026-05-07 18:13 33.71527 7.66221 36805 ft 477 kts 108°
2026-05-07 18:13 33.70419 7.74039 36821 ft 476 kts 108°
2026-05-07 18:14 33.69236 7.81843 36819 ft 475 kts 109°
2026-05-07 18:14 33.67978 7.89635 36815 ft 474 kts 110°
2026-05-07 18:15 33.66651 7.97375 36795 ft 473 kts 110°
2026-05-07 18:15 33.65245 8.05115 36814 ft 474 kts 110°
2026-05-07 18:16 33.63763 8.12829 36816 ft 474 kts 111°
2026-05-07 18:16 33.62213 8.20488 36810 ft 473 kts 112°
2026-05-07 18:17 33.60587 8.28130 36815 ft 472 kts 113°
2026-05-07 18:17 33.58889 8.35732 36790 ft 471 kts 113°
2026-05-07 18:18 33.57118 8.43299 36813 ft 471 kts 114°
2026-05-07 18:18 33.55277 8.50812 36819 ft 470 kts 115°
2026-05-07 18:19 33.53372 8.58257 36816 ft 469 kts 115°
2026-05-07 18:19 33.51386 8.65693 36819 ft 468 kts 116°
2026-05-07 18:20 33.49669 8.71874 36790 ft 467 kts 117°
2026-05-07 18:20 33.47554 8.79212 36818 ft 464 kts 117°
2026-05-07 18:21 33.45375 8.86462 36821 ft 463 kts 118°
2026-05-07 18:21 33.44544 8.90191 36820 ft 474 kts 99°
2026-05-07 18:21 33.44751 8.94179 36824 ft 483 kts 75°
2026-05-07 18:21 33.46054 8.97845 36826 ft 481 kts 52°
2026-05-07 18:22 33.48297 9.00767 36824 ft 468 kts 28°
2026-05-07 18:22 33.53511 9.05378 36816 ft 479 kts 48°
2026-05-07 18:22 33.55214 9.08793 36824 ft 484 kts 71°
2026-05-07 18:23 33.55875 9.12730 36831 ft 477 kts 95°
2026-05-07 18:23 33.55408 9.16568 36829 ft 460 kts 118°
2026-05-07 18:23 33.54028 9.19945 36838 ft 448 kts 129°
2026-05-07 18:24 33.50905 9.26396 36846 ft 450 kts 129°
2026-05-07 18:24 33.47780 9.32909 36845 ft 451 kts 129°
2026-05-07 18:25 33.44686 9.39425 36840 ft 451 kts 128°
2026-05-07 18:25 33.41609 9.45975 36842 ft 451 kts 128°
2026-05-07 18:26 33.38558 9.52539 36847 ft 451 kts 128°
2026-05-07 18:26 33.35529 9.59129 36858 ft 452 kts 127°
2026-05-07 18:27 33.32526 9.65736 36858 ft 452 kts 127°
2026-05-07 18:27 33.29560 9.72330 36858 ft 452 kts 126°
2026-05-07 18:28 33.26608 9.78970 36868 ft 452 kts 126°
2026-05-07 18:28 33.23689 9.85610 36874 ft 452 kts 125°
2026-05-07 18:29 33.20790 9.92278 36881 ft 453 kts 125°
2026-05-07 18:29 33.17913 9.98969 36893 ft 453 kts 124°
2026-05-07 18:30 33.15058 10.05683 36890 ft 453 kts 124°
2026-05-07 18:30 33.12240 10.12384 36894 ft 454 kts 124°
2026-05-07 18:31 33.09436 10.19130 36900 ft 454 kts 124°
2026-05-07 18:31 33.06667 10.25871 36901 ft 452 kts 123°
2026-05-07 18:32 33.03922 10.32639 36908 ft 451 kts 122°
2026-05-07 18:32 33.01216 10.39389 36909 ft 451 kts 122°
2026-05-07 18:33 32.98537 10.46146 36912 ft 452 kts 122°
2026-05-07 18:33 32.95879 10.52925 36912 ft 452 kts 121°
2026-05-07 18:34 32.93247 10.59715 36915 ft 453 kts 121°
2026-05-07 18:34 32.90635 10.66523 36912 ft 454 kts 121°
2026-05-07 18:35 32.88033 10.73380 36914 ft 455 kts 120°
2026-05-07 18:35 32.85452 10.80262 36915 ft 455 kts 120°
2026-05-07 18:36 32.82906 10.87127 36915 ft 455 kts 120°
2026-05-07 18:36 32.80377 10.94028 36914 ft 455 kts 120°
2026-05-07 18:37 32.77874 11.00939 36911 ft 456 kts 119°
2026-05-07 18:37 32.75399 11.07854 36909 ft 455 kts 119°
2026-05-07 18:38 32.72946 11.14791 36910 ft 454 kts 118°
2026-05-07 18:38 32.70535 11.21714 36904 ft 447 kts 118°
2026-05-07 18:38 32.69401 11.25065 36907 ft 436 kts 118°
2026-05-07 18:39 32.68293 11.28344 36905 ft 417 kts 118°
2026-05-07 18:39 32.67245 11.31456 36876 ft 392 kts 118°
2026-05-07 18:39 32.66336 11.34408 36808 ft 373 kts 113°
2026-05-07 18:39 32.65737 11.37299 36676 ft 357 kts 101°
2026-05-07 18:40 32.65648 11.40193 36419 ft 339 kts 81°
2026-05-07 18:40 32.66209 11.42743 35629 ft 292 kts 40°
2026-05-07 18:40 32.66339 11.44892 29544 ft 283 kts 125°
2026-05-07 18:40 32.64706 11.47074 19856 ft 483 kts 151°
2026-05-07 18:41 32.61594 11.49684 13100 ft 578 kts 147°
2026-05-07 18:41 32.58616 11.52876 9403 ft 578 kts 132°
2026-05-07 18:41 32.56952 11.56828 9391 ft 506 kts 103°
2026-05-07 18:41 32.57241 11.60676 9864 ft 454 kts 67°
2026-05-07 18:42 32.59336 11.63289 8393 ft 436 kts 22°
2026-05-07 18:42 32.62249 11.63437 5104 ft 434 kts 336°
2026-05-07 18:42 32.64437 11.60984 824 ft 458 kts 293°
2026-05-07 18:42 32.65097 11.58858 175 ft 188 kts 291°
2026-05-07 18:43 32.65330 11.58090 156 ft 20 kts 295°
2026-05-07 18:43 32.65316 11.58084 156 ft 2 kts 297°
2026-05-07 18:43 32.65326 11.58084 156 ft 2 kts 239°
2026-05-07 18:43 32.65327 11.58083 155 ft 0 kts 251°
2026-05-07 18:44 32.65328 11.58082 155 ft 0 kts 245°
2026-05-07 18:44 32.65329 11.58082 155 ft 0 kts 244°
2026-05-07 18:47 32.65328 11.58082 155 ft 0 kts 245°
2026-05-07 18:51 32.65328 11.58081 155 ft 0 kts 246°
2026-05-07 18:57 32.65327 11.58081 153 ft 0 kts 249°